| time (UTC) | temp F | wind direction | speed MPH | gust MPH | rain 1hr in | rain 24hr in | rain mn in | humidity % | barometer mb |
| 20260504030500 | 59 | 227 | 0.0 | 2.0 | 0.00 | 0.00 | 0.00 | 56 | 1005.9 |
| 20260504025958 | 59 | 227 | 0.0 | 2.0 | 0.00 | 0.00 | 0.00 | 56 | 1005.9 |
| 20260504025457 | 59 | 230 | 0.0 | 3.0 | 0.00 | 0.00 | 0.00 | 55 | 1005.9 |
| 20260504024958 | 59 | 230 | 0.0 | 3.0 | 0.00 | 0.00 | 0.00 | 55 | 1005.9 |
| 20260504024458 | 59 | 230 | 0.0 | 2.0 | 0.00 | 0.00 | 0.00 | 55 | 1005.9 |
| 20260504023959 | 60 | 229 | 0.0 | 6.0 | 0.00 | 0.00 | 0.00 | 54 | 1005.9 |
| 20260504023457 | 60 | 235 | 0.0 | 6.0 | 0.00 | 0.00 | 0.00 | 54 | 1005.9 |
| 20260504022457 | 60 | 211 | 0.0 | 2.0 | 0.00 | 0.00 | 0.00 | 53 | 1005.8 |
| 20260504022003 | 60 | 211 | 0.0 | 2.0 | 0.00 | 0.00 | 0.00 | 53 | 1005.8 |
| 20260504021457 | 61 | 211 | 0.0 | 3.0 | 0.00 | 0.00 | 0.00 | 53 | 1005.8 |
| 20260504020457 | 61 | 228 | 0.0 | 2.0 | 0.00 | 0.00 | 0.00 | 52 | 1005.7 |
| 20260504015958 | 61 | 228 | 0.0 | 2.0 | 0.00 | 0.00 | 0.00 | 52 | 1005.7 |
| 20260504015457 | 61 | 229 | 1.0 | 5.0 | 0.00 | 0.00 | 0.00 | 51 | 1005.4 |
| 20260504014958 | 61 | 229 | 1.0 | 5.0 | 0.00 | 0.00 | 0.00 | 51 | 1005.4 |
| 20260504014457 | 62 | 236 | 1.0 | 6.0 | 0.00 | 0.00 | 0.00 | 51 | 1005.4 |
| 20260504014000 | 62 | 229 | 0.0 | 6.0 | 0.00 | 0.00 | 0.00 | 50 | 1005.3 |
| 20260504013500 | 62 | 253 | 0.0 | 5.0 | 0.00 | 0.00 | 0.00 | 50 | 1005.3 |
| 20260504012958 | 62 | 229 | 1.0 | 4.0 | 0.00 | 0.00 | 0.00 | 50 | 1005.3 |
| 20260504011958 | 63 | 263 | 1.0 | 5.0 | 0.00 | 0.00 | 0.00 | 49 | 1005.3 |
| 20260504011459 | 63 | 256 | 1.0 | 5.0 | 0.00 | 0.00 | 0.00 | 49 | 1005.3 |
| 20260504011004 | 63 | 225 | 1.0 | 4.0 | 0.00 | 0.00 | 0.00 | 48 | 1005.2 |
| 20260504010458 | 63 | 248 | 1.0 | 7.0 | 0.00 | 0.00 | 0.00 | 48 | 1005.2 |
| 20260504010004 | 64 | 237 | 1.0 | 7.0 | 0.00 | 0.00 | 0.00 | 47 | 1005.2 |
| 20260504005458 | 64 | 205 | 1.0 | 5.0 | 0.00 | 0.00 | 0.00 | 47 | 1005.3 |
| 20260504004959 | 65 | 200 | 0.0 | 2.0 | 0.00 | 0.00 | 0.00 | 46 | 1005.3 |
| 20260504004001 | 65 | 225 | 1.0 | 6.0 | 0.00 | 0.00 | 0.00 | 44 | 1005.3 |
| 20260504003459 | 65 | 213 | 1.0 | 5.0 | 0.00 | 0.00 | 0.00 | 44 | 1005.3 |
| 20260504002458 | 66 | 219 | 1.0 | 5.0 | 0.00 | 0.00 | 0.00 | 42 | 1005.3 |
| 20260504002001 | 66 | 232 | 1.0 | 5.0 | 0.00 | 0.00 | 0.00 | 42 | 1005.3 |
| 20260504001459 | 66 | 242 | 2.0 | 6.0 | 0.00 | 0.00 | 0.00 | 42 | 1005.3 |
| 20260504001005 | 67 | 211 | 2.0 | 7.0 | 0.00 | 0.00 | 0.00 | 41 | 1005.3 |
| 20260504000458 | 67 | 234 | 1.0 | 7.0 | 0.00 | 0.00 | 0.00 | 41 | 1005.3 |
| 20260504000009 | 67 | 223 | 2.0 | 7.0 | 0.00 | 0.00 | 0.00 | 41 | 1005.3 |
| 20260503235458 | 67 | 246 | 2.0 | 7.0 | 0.00 | 0.00 | 0.00 | 40 | 1005.3 |
| 20260503235001 | 67 | 229 | 2.0 | 7.0 | 0.00 | 0.00 | 0.00 | 40 | 1005.3 |
| 20260503234457 | 67 | 270 | 2.0 | 7.0 | 0.00 | 0.00 | 0.00 | 40 | 1005.3 |
| 20260503233957 | 68 | 261 | 2.0 | 7.0 | 0.00 | 0.00 | 0.00 | 40 | 1005.3 |
| 20260503233500 | 68 | 285 | 2.0 | 7.0 | 0.00 | 0.00 | 0.00 | 38 | 1005.3 |
| 20260503232959 | 68 | 288 | 3.0 | 7.0 | 0.00 | 0.00 | 0.00 | 38 | 1005.3 |
| 20260503232457 | 68 | 225 | 3.0 | 7.0 | 0.00 | 0.00 | 0.00 | 38 | 1005.3 |
| 20260503231958 | 69 | 163 | 3.0 | 11.0 | 0.00 | 0.00 | 0.00 | 40 | 1005.3 |
| 20260503231458 | 69 | 235 | 3.0 | 10.0 | 0.00 | 0.00 | 0.00 | 39 | 1005.3 |
| 20260503231000 | 69 | 219 | 3.0 | 9.0 | 0.00 | 0.00 | 0.00 | 38 | 1005.3 |
| 20260503230457 | 69 | 146 | 3.0 | 11.0 | 0.00 | 0.00 | 0.00 | 37 | 1005.3 |
| 20260503225958 | 69 | 214 | 3.0 | 11.0 | 0.00 | 0.00 | 0.00 | 41 | 1005.3 |
| 20260503224504 | 69 | 200 | 3.0 | 12.0 | 0.00 | 0.00 | 0.00 | 37 | 1005.4 |
| 20260503223958 | 70 | 231 | 2.0 | 12.0 | 0.00 | 0.00 | 0.00 | 38 | 1005.7 |
| 20260503223458 | 70 | 200 | 1.0 | 10.0 | 0.00 | 0.00 | 0.00 | 40 | 1005.7 |
| 20260503221958 | 69 | 241 | 1.0 | 11.0 | 0.00 | 0.00 | 0.00 | 39 | 1005.8 |
| 20260503221500 | 69 | 209 | 2.0 | 11.0 | 0.00 | 0.00 | 0.00 | 38 | 1005.8 |
| 20260503220959 | 68 | 225 | 2.0 | 9.0 | 0.00 | 0.00 | 0.00 | 38 | 1005.9 |
| 20260503220506 | 68 | 206 | 1.0 | 6.0 | 0.00 | 0.00 | 0.00 | 39 | 1005.9 |
| 20260503215459 | 67 | 206 | 2.0 | 12.0 | 0.00 | 0.00 | 0.00 | 38 | 1006.0 |
| 20260503215005 | 67 | 217 | 3.0 | 12.0 | 0.00 | 0.00 | 0.00 | 37 | 1006.0 |
| 20260503214457 | 68 | 186 | 3.0 | 9.0 | 0.00 | 0.00 | 0.00 | 40 | 1006.0 |
| 20260503213457 | 68 | 219 | 2.0 | 17.0 | 0.00 | 0.00 | 0.00 | 39 | 1006.4 |
| 20260503212458 | 67 | 189 | 2.0 | 13.0 | 0.00 | 0.00 | 0.00 | 40 | 1006.6 |
| 20260503211957 | 66 | 241 | 2.0 | 10.0 | 0.00 | 0.00 | 0.00 | 41 | 1006.6 |
| 20260503210959 | 66 | 218 | 3.0 | 11.0 | 0.00 | 0.00 | 0.00 | 37 | 1006.9 |
| 20260503210457 | 66 | 263 | 3.0 | 11.0 | 0.00 | 0.00 | 0.00 | 39 | 1006.9 |
| 20260503205958 | 66 | 171 | 3.0 | 12.0 | 0.00 | 0.00 | 0.00 | 38 | 1006.9 |
| 20260503204959 | 67 | 226 | 4.0 | 14.0 | 0.00 | 0.00 | 0.00 | 37 | 1007.1 |
| 20260503204457 | 67 | 215 | 4.0 | 11.0 | 0.00 | 0.00 | 0.00 | 37 | 1007.1 |
| 20260503203458 | 67 | 135 | 4.0 | 13.0 | 0.00 | 0.00 | 0.00 | 36 | 1007.5 |
| 20260503202457 | 68 | 229 | 4.0 | 10.0 | 0.00 | 0.00 | 0.00 | 35 | 1007.8 |
| 20260503201458 | 67 | 275 | 4.0 | 12.0 | 0.00 | 0.00 | 0.00 | 36 | 1007.8 |
| 20260503200958 | 67 | 236 | 4.0 | 12.0 | 0.00 | 0.00 | 0.00 | 36 | 1007.8 |
| 20260503200458 | 67 | 173 | 4.0 | 12.0 | 0.00 | 0.00 | 0.00 | 37 | 1007.8 |
| 20260503200002 | 67 | 235 | 4.0 | 12.0 | 0.00 | 0.00 | 0.00 | 40 | 1007.8 |
| 20260503195001 | 66 | 133 | 3.0 | 8.0 | 0.00 | 0.00 | 0.00 | 43 | 1007.9 |
| 20260503194459 | 65 | 163 | 3.0 | 10.0 | 0.00 | 0.00 | 0.00 | 44 | 1007.9 |
| 20260503193959 | 65 | 172 | 2.0 | 10.0 | 0.00 | 0.00 | 0.00 | 47 | 1008.0 |
| 20260503193505 | 64 | 171 | 2.0 | 8.0 | 0.00 | 0.00 | 0.00 | 47 | 1008.0 |
| 20260503193004 | 64 | 266 | 2.0 | 11.0 | 0.00 | 0.00 | 0.00 | 48 | 1008.0 |
| 20260503192459 | 63 | 149 | 3.0 | 11.0 | 0.00 | 0.00 | 0.00 | 45 | 1008.4 |
| 20260503192004 | 63 | 206 | 2.0 | 11.0 | 0.00 | 0.00 | 0.00 | 49 | 1008.4 |
| 20260503191457 | 62 | 211 | 2.0 | 11.0 | 0.00 | 0.00 | 0.00 | 51 | 1008.4 |
| 20260503191006 | 62 | 240 | 3.0 | 11.0 | 0.00 | 0.00 | 0.00 | 52 | 1008.5 |
| 20260503190458 | 61 | 188 | 3.0 | 12.0 | 0.00 | 0.00 | 0.00 | 53 | 1008.5 |
| 20260503185958 | 61 | 186 | 3.0 | 9.0 | 0.00 | 0.00 | 0.00 | 53 | 1008.5 |
| 20260503185456 | 60 | 280 | 2.0 | 9.0 | 0.00 | 0.00 | 0.00 | 54 | 1008.9 |
| 20260503184959 | 60 | 166 | 2.0 | 8.0 | 0.00 | 0.00 | 0.00 | 53 | 1008.9 |
| 20260503184500 | 60 | 235 | 2.0 | 8.0 | 0.00 | 0.00 | 0.00 | 55 | 1008.9 |
| 20260503183959 | 59 | 204 | 2.0 | 8.0 | 0.00 | 0.00 | 0.00 | 55 | 1009.4 |
| 20260503183459 | 59 | 187 | 2.0 | 7.0 | 0.00 | 0.00 | 0.00 | 58 | 1009.4 |
| 20260503182958 | 58 | 170 | 2.0 | 6.0 | 0.00 | 0.00 | 0.00 | 59 | 1009.4 |
| 20260503182457 | 57 | 188 | 1.0 | 9.0 | 0.00 | 0.00 | 0.00 | 63 | 1009.5 |
| 20260503181959 | 56 | 213 | 1.0 | 9.0 | 0.00 | 0.00 | 0.00 | 61 | 1009.5 |
| 20260503181457 | 55 | 247 | 2.0 | 6.0 | 0.00 | 0.00 | 0.00 | 63 | 1009.5 |
| 20260503180956 | 55 | 222 | 2.0 | 6.0 | 0.00 | 0.00 | 0.00 | 62 | 1009.9 |
| 20260503180459 | 55 | 176 | 2.0 | 6.0 | 0.00 | 0.00 | 0.00 | 63 | 1009.9 |
| 20260503175456 | 53 | 215 | 0.0 | 3.0 | 0.00 | 0.00 | 0.00 | 66 | 1010.5 |
| 20260503174957 | 53 | 155 | 1.0 | 3.0 | 0.00 | 0.00 | 0.00 | 68 | 1010.5 |
| 20260503173958 | 52 | 313 | 1.0 | 3.0 | 0.00 | 0.00 | 0.00 | 71 | 1011.0 |
| 20260503173456 | 52 | 198 | 1.0 | 3.0 | 0.00 | 0.00 | 0.00 | 72 | 1011.0 |
| 20260503173000 | 51 | 221 | 1.0 | 4.0 | 0.00 | 0.00 | 0.00 | 72 | 1011.0 |
| 20260503172456 | 51 | 259 | 1.0 | 4.0 | 0.00 | 0.00 | 0.00 | 73 | 1011.6 |
| 20260503171957 | 51 | 198 | 1.0 | 3.0 | 0.00 | 0.00 | 0.00 | 75 | 1011.6 |
| 20260503171457 | 51 | 242 | 1.0 | 5.0 | 0.00 | 0.00 | 0.00 | 72 | 1011.6 |
| 20260503170456 | 51 | 238 | 1.0 | 5.0 | 0.00 | 0.00 | 0.00 | 69 | 1011.8 |
| 20260503131006 | 48 | 227 | 1.0 | 8.0 | 0.00 | 0.00 | 0.00 | 58 | 1013.7 |
| 20260503130458 | 48 | 243 | 2.0 | 8.0 | 0.00 | 0.00 | 0.00 | 59 | 1013.7 |
| 20260503090458 | 44 | 231 | 0.0 | 4.0 | 0.00 | 0.00 | 0.00 | 57 | 1013.8 |
| 20260503081457 | 44 | 210 | 0.0 | 0.0 | 0.00 | 0.00 | 0.00 | 56 | 1014.1 |
| 20260503080958 | 44 | 209 | 0.0 | 0.0 | 0.00 | 0.00 | 0.00 | 55 | 1014.1 |
| 20260503080455 | 44 | 250 | 0.0 | 0.0 | 0.00 | 0.00 | 0.00 | 55 | 1014.1 |
| 20260503072456 | 44 | 249 | 0.0 | 0.0 | 0.00 | 0.00 | 0.00 | 54 | 1014.2 |
| 20260503071956 | 44 | 249 | 0.0 | 0.0 | 0.00 | 0.00 | 0.00 | 54 | 1014.2 |
| 20260503071455 | 44 | 245 | 0.0 | 0.0 | 0.00 | 0.00 | 0.00 | 55 | 1014.2 |
| 20260503070958 | 44 | 245 | 0.0 | 0.0 | 0.00 | 0.00 | 0.00 | 54 | 1014.3 |
| 20260503070454 | 44 | 245 | 0.0 | 0.0 | 0.00 | 0.00 | 0.00 | 54 | 1014.3 |
| 20260503055000 | 45 | 242 | 0.0 | 0.0 | 0.00 | 0.00 | 0.00 | 53 | 1014.9 |
| 20260503054500 | 45 | 242 | 0.0 | 0.0 | 0.00 | 0.00 | 0.00 | 52 | 1014.9 |
| 20260503053502 | 45 | 242 | 0.0 | 0.0 | 0.00 | 0.00 | 0.00 | 52 | 1015.0 |
| 20260503053004 | 45 | 242 | 0.0 | 0.0 | 0.00 | 0.00 | 0.00 | 51 | 1015.0 |
| 20260503052504 | 45 | 244 | 0.0 | 0.0 | 0.00 | 0.00 | 0.00 | 51 | 1015.2 |
| 20260503052000 | 45 | 244 | 0.0 | 0.0 | 0.00 | 0.00 | 0.00 | 52 | 1015.2 |
| 20260503051459 | 45 | 244 | 0.0 | 0.0 | 0.00 | 0.00 | 0.00 | 52 | 1015.2 |
| 20260503051004 | 45 | 244 | 0.0 | 0.0 | 0.00 | 0.00 | 0.00 | 52 | 1015.3 |
| 20260503050504 | 45 | 244 | 0.0 | 0.0 | 0.00 | 0.00 | 0.00 | 51 | 1015.3 |
| 20260503050008 | 45 | 244 | 0.0 | 0.0 | 0.00 | 0.00 | 0.00 | 51 | 1015.3 |
| 20260503045005 | 46 | 244 | 0.0 | 0.0 | 0.00 | 0.00 | 0.00 | 52 | 1015.3 |
| 20260503044503 | 46 | 244 | 0.0 | 0.0 | 0.00 | 0.00 | 0.00 | 51 | 1015.3 |
| 20260503043500 | 46 | 244 | 0.0 | 0.0 | 0.00 | 0.00 | 0.00 | 51 | 1015.3 |
| 20260503043005 | 46 | 244 | 0.0 | 0.0 | 0.00 | 0.00 | 0.00 | 51 | 1015.3 |
| 20260503042500 | 46 | 244 | 0.0 | 0.0 | 0.00 | 0.00 | 0.00 | 51 | 1015.3 |
| 20260503042004 | 46 | 244 | 0.0 | 0.0 | 0.00 | 0.00 | 0.00 | 51 | 1015.3 |
| 20260503041004 | 46 | 244 | 0.0 | 0.0 | 0.00 | 0.00 | 0.00 | 52 | 1015.4 |
| 20260503040500 | 46 | 250 | 0.0 | 0.0 | 0.00 | 0.00 | 0.00 | 51 | 1015.4 |
| 20260503040001 | 46 | 250 | 0.0 | 0.0 | 0.00 | 0.00 | 0.00 | 51 | 1015.4 |
| 20260503035500 | 46 | 250 | 0.0 | 0.0 | 0.00 | 0.00 | 0.00 | 51 | 1015.3 |
| 20260503035003 | 46 | 250 | 0.0 | 0.0 | 0.00 | 0.00 | 0.00 | 52 | 1015.3 |
| 20260503034000 | 46 | 250 | 0.0 | 0.0 | 0.00 | 0.00 | 0.00 | 52 | 1015.4 |
| 20260503033459 | 46 | 250 | 0.0 | 0.0 | 0.00 | 0.00 | 0.00 | 52 | 1015.4 |
| 20260503033000 | 46 | 250 | 0.0 | 0.0 | 0.00 | 0.00 | 0.00 | 52 | 1015.4 |
| 20260503032500 | 46 | 250 | 0.0 | 0.0 | 0.00 | 0.00 | 0.00 | 52 | 1015.6 |
| 20260503031959 | 46 | 250 | 0.0 | 0.0 | 0.00 | 0.00 | 0.00 | 53 | 1015.6 |
| 20260503031459 | 46 | 250 | 0.0 | 0.0 | 0.00 | 0.00 | 0.00 | 53 | 1015.6 |
| 20260503030959 | 46 | 250 | 0.0 | 0.0 | 0.00 | 0.00 | 0.00 | 52 | 1015.7 |